[[{"header":{"parameterUnit":"m.s-1","parameterCategory":1,"la1":30.2991,"la2":30.254,"lo1":-89.0895,"lo2":-89.0444,"dy":0.0017,"dx":0.0017,"nx":28,"ny":28,"refTime":"2024-06-19T03:00:00:Z","depth":0,"parameterNumber":2,"parameterNumberName":"U-component_of_WINDS"},"data":[0,0,0,0,0,0,0,0,0,0,0,0,0,0,0,0,0,0,0,0,0,0,0,0,0,0,0,0,0,0,0,0,0,0,0,0,0,0,0,0,0,0,0,0,0,0,0,0,0,0,0,0,0,0,0,0,0,0,-7.0295,-7.0294,0,-7.0257,-7.0257,-7.0257,-7.0073,-7.0068,-7.0064,-7.006,-7.0024,-7.0027,-7.0031,0,0,0,0,0,0,0,0,0,0,0,0,0,-7.021,-7.0212,-7.0295,-7.0294,-7.0294,-7.0257,-7.0257,-7.0256,-7.0074,-7.0068,-7.0063,-7.0058,-7.0023,-7.0027,-7.0031,0,0,0,0,0,0,0,0,0,0,0,0,0,-7.0217,-7.0213,-7.0295,-7.0198,-7.0189,-7.0258,-7.0257,-7.0256,-7.0075,-7.0068,-7.0062,-7.0056,-7.0022,-7.0027,-7.0031,-7.0191,0,0,-7.0046,-7.0048,0,0,0,0,0,0,0,0,-7.0217,-7.0221,-7.0213,-7.0205,-7.0195,-7.0163,-7.0214,-7.0234,-7.0076,-7.0118,-7.006,-7.0052,-7.0076,-7.0076,-7.0083,-7.0189,-7.0188,-7.0046,-7.0049,-7.0051,-7.0052,0,0,0,0,0,0,0,-7.0217,-7.0221,-7.028,-7.0213,-7.0202,-7.0157,-7.0151,-7.0217,-7.0134,-7.0114,-7.0101,-7.0099,-7.007,-7.0079,-7.0081,-7.0187,-7.0046,-7.005,-7.0053,-7.0055,-7.0422,-7.0429,0,0,0,0,0,0,-7.023,-7.0222,-7.0281,-7.0279,-7.019,-7.0164,-7.0157,-7.018,-7.0133,-7.012,-7.0104,-7.009,-7.0074,-7.0076,-7.0079,-7.0262,-7.0051,-7.0055,-7.0058,-7.0415,-7.0424,-7.0431,0,0,0,0,0,0,-7.0229,-7.0237,-7.0283,-7.0247,-7.0249,-7.0173,-7.02,-7.0183,-7.0191,-7.0125,-7.011,-7.0129,-7.0069,-7.0073,-7.0164,-7.0259,-7.0057,-7.0061,-7.0407,-7.0418,-7.0427,-7.0631,0,0,0,0,0,0,-7.0227,-7.0237,-7.0297,-7.0249,-7.0252,-7.0368,-7.0205,-7.0187,-7.02,-7.0181,-7.0144,-7.0132,-7.0064,-7.0158,-7.0169,-7.0261,-7.0065,-7.0398,-7.0412,-7.0424,-7.0615,-7.0647,-7.0674,0,0,0,0,0,-7.0225,-7.0356,-7.03,-7.0309,-7.0324,-7.0374,-7.0375,-7.0294,-7.0208,-7.0267,-7.0225,-7.0133,-7.0247,-7.0169,-7.018,-7.0275,-7.0392,-7.0408,-7.0423,-7.0602,-7.0641,-7.0673,0,0,0,0,0,0,-7.0417,-7.0348,-7.0286,-7.0405,-7.0397,-7.0343,-7.0415,-7.0337,-7.0354,-7.0336,-7.0235,-7.0228,-7.0335,-7.0314,-7.0229,-7.0427,-7.0304,-7.0322,-7.0436,-7.0473,-7.0501,-7.0504,-7.0069,0,0,0,0,0,-7.0473,-7.0518,-7.0456,-7.0568,-7.0567,-7.0493,-7.0511,-7.0449,-7.0436,-7.0432,-7.0396,-7.0388,-7.0422,-7.0446,-7.0473,-7.0612,-7.0601,-7.0683,-7.0712,-7.0737,-7.0754,-7.0825,-7.0861,-7.0483,-7.0483,-7.0482,0,0,-7.059,-7.0558,-7.0593,-7.0606,-7.0592,-7.0642,-7.049,-7.055,-7.0586,-7.0441,-7.0525,-7.0499,-7.0484,-7.06,-7.0649,-7.0585,-7.0856,-7.0757,-7.0776,-7.078,-7.0845,-7.0881,-7.0913,-7.0493,-7.0491,-7.049,0,0,-7.0827,-7.0808,-7.0899,-7.0888,-7.0869,-7.0818,-7.0841,-7.0799,-7.0775,-7.0858,-7.0751,-7.0793,-7.0853,-7.0846,-7.0851,-7.1088,-7.1005,-7.11,-7.1253,-7.1324,-7.1354,-7.138,-7.1465,-7.1496,-7.1117,-7.1118,-7.1118,0,-7.0975,-7.1045,-7.0956,-7.1022,-7.1031,-7.0902,-7.0994,-7.0988,-7.098,-7.0989,-7.0918,-7.0991,-7.0972,-7.1084,-7.1142,-7.115,-7.1173,-7.1103,-7.1357,-7.1382,-7.1405,-7.1484,-7.1516,-7.113,-7.1128,-7.1127,-7.1126,0,-7.1228,-7.1278,-7.1354,-7.1348,-7.1366,-7.1445,-7.1368,-7.1397,-7.1335,-7.1293,-7.1379,-7.1351,-7.1371,-7.1393,-7.1333,-7.1498,-7.1459,-7.1375,-7.1248,-7.1454,-7.1527,-7.1557,-7.1146,-7.1142,-7.1139,-7.1136,0,0,-7.1584,-7.1528,-7.1558,-7.1553,-7.1523,-7.1561,-7.1635,-7.1653,-7.168,-7.1679,-7.1738,-7.1793,-7.1714,-7.172,-7.1658,-7.1721,-7.1911,-7.1628,-7.1626,-7.1681,-7.2091,-7.2154,-7.2191,-7.1855,-7.1861,-7.1865,-7.2092,0,-7.1811,-7.1932,-7.1855,-7.1989,-7.2034,-7.1913,-7.1978,-7.1967,-7.193,-7.1964,-7.1923,-7.1963,-7.1857,-7.1859,-7.1916,-7.1876,-7.1991,-7.1858,-7.191,-7.1913,-7.1917,-7.2229,-7.2296,-7.2511,-7.212,-7.2125,-7.2128,0,-7.2092,-7.2102,-7.2241,-7.2202,-7.2218,-7.2277,-7.2288,-7.2322,-7.2308,-7.2277,-7.2284,-7.2206,-7.2277,-7.2154,-7.225,-7.2161,-7.2178,-7.2162,-7.2168,-7.2169,-7.2033,-7.2238,-7.2578,-7.261,-7.2172,-7.2169,-7.2166,0,-7.2338,-7.2387,-7.2475,-7.2476,-7.2433,-7.2477,-7.2462,-7.244,-7.2457,-7.2467,-7.2477,-7.2496,-7.2506,-7.2523,-7.2453,-7.237,-7.2559,-7.243,-7.2535,-7.2537,-7.2579,-7.2578,-7.2927,-7.2593,-7.2592,-7.2591,-7.2591,0,-7.2599,-7.2688,-7.2585,-7.264,-7.2737,-7.2648,-7.2747,-7.2718,-7.2701,-7.2749,-7.2646,-7.2693,-7.2598,-7.2637,-7.2583,-7.267,-7.2676,-7.2653,-7.2638,-7.2662,-7.2665,-7.2671,-7.2654,-7.26,-7.2598,-7.2596,-7.2595,0,-7.2889,-7.2824,-7.2913,-7.2865,-7.2855,-7.2929,-7.2888,-7.2937,-7.2893,-7.2956,-7.2965,-7.2897,-7.2937,-7.2869,-7.2901,-7.2864,-7.2987,-7.2948,-7.2991,-7.298,-7.3089,-7.3079,-7.3453,-7.3497,-7.3136,-7.314,-7.3143,0,-7.3059,-7.3125,-7.3084,-7.3109,-7.3098,-7.3139,-7.3155,-7.307,-7.3091,-7.3081,-7.3132,-7.3163,-7.3182,-7.3252,-7.3206,-7.323,-7.3191,-7.332,-7.3194,-7.3216,-7.3192,-7.3189,-7.3195,-7.3346,-7.3351,-7.3354,-7.3357,0,-7.3368,-7.3333,-7.3359,-7.3376,-7.3398,-7.3406,-7.3408,-7.3434,-7.3344,-7.3373,-7.3412,-7.3428,-7.346,-7.3492,-7.3505,-7.3489,-7.341,-7.3398,-7.3423,-7.3448,-7.347,-7.3459,-7.3062,-7.3389,-7.3386,-7.3383,-7.3382,-7.338,-7.3603,-7.3656,-7.3636,-7.3669,-7.3661,-7.3665,-7.3709,-7.3671,-7.3702,-7.372,-7.3669,-7.372,-7.3705,-7.3714,-7.3708,-7.3747,-7.369,-7.3727,-7.3736,-7.3747,-7.3764,-7.3465,-7.3749,-7.3748,-7.3747,-7.3747,-7.3746,0,-7.3906,-7.3887,-7.3919,-7.3924,-7.3951,-7.3872,-7.387,-7.3898,-7.3944,-7.3936,-7.3958,-7.4003,-7.4035,-7.3992,-7.4016,-7.4056,-7.402,-7.4065,-7.4061,-7.4058,-7.3814,-7.3789,-7.4094,-7.4094,-7.4094,-7.4094,-7.4093,-7.4093,-7.4067,-7.4152,-7.4115,-7.4196,-7.4176,-7.4225,-7.4231,-7.4234,-7.4228,-7.4283,-7.4308,-7.4279,-7.4258,-7.428,-7.4305,-7.4292,-7.4305,-7.4364,-7.4338,-7.411,-7.4076,-7.4043,-7.4019,-7.4367,-7.4368,-7.4579,-7.4581,-7.4582]},{"header":{"parameterUnit":"m.s-1","parameterCategory":1,"la1":30.2991,"la2":30.254,"lo1":-89.0895,"lo2":-89.0444,"dy":0.0017,"dx":0.0017,"nx":28,"ny":28,"refTime":"2024-06-19T03:00:00:Z","depth":0,"parameterNumber":3,"parameterNumberName":"V-component_of_WINDS"},"data":[0,0,0,0,0,0,0,0,0,0,0,0,0,0,0,0,0,0,0,0,0,0,0,0,0,0,0,0,0,0,0,0,0,0,0,0,0,0,0,0,0,0,0,0,0,0,0,0,0,0,0,0,0,0,0,0,0,0,-0.1266,-0.1266,0,-0.1271,-0.1271,-0.1271,-0.1237,-0.1236,-0.1235,-0.1234,-0.124,-0.1241,-0.1242,0,0,0,0,0,0,0,0,0,0,0,0,0,-0.123,-0.1231,-0.1266,-0.1267,-0.1267,-0.1271,-0.1271,-0.1271,-0.1237,-0.1236,-0.1235,-0.1234,-0.1239,-0.1241,-0.1242,0,0,0,0,0,0,0,0,0,0,0,0,0,-0.1241,-0.1231,-0.1266,-0.125,-0.1249,-0.1271,-0.1271,-0.1271,-0.1237,-0.1236,-0.1234,-0.1233,-0.1239,-0.124,-0.1242,-0.128,0,0,-0.1247,-0.1247,0,0,0,0,0,0,0,0,-0.1241,-0.1243,-0.1253,-0.1251,-0.125,-0.1252,-0.126,-0.1274,-0.1238,-0.1242,-0.1234,-0.1232,-0.1245,-0.1246,-0.125,-0.128,-0.1281,-0.1247,-0.1248,-0.1248,-0.1249,0,0,0,0,0,0,0,-0.124,-0.1242,-0.1268,-0.1253,-0.1251,-0.1243,-0.1243,-0.1262,-0.1251,-0.1241,-0.1239,-0.124,-0.1244,-0.1248,-0.125,-0.1281,-0.1247,-0.1248,-0.1249,-0.125,-0.1342,-0.1344,0,0,0,0,0,0,-0.1241,-0.1242,-0.1268,-0.1268,-0.1242,-0.1245,-0.1245,-0.1253,-0.1251,-0.1249,-0.1241,-0.1238,-0.1246,-0.1248,-0.125,-0.1295,-0.1248,-0.125,-0.1251,-0.1341,-0.1342,-0.1344,0,0,0,0,0,0,-0.124,-0.1244,-0.1268,-0.1254,-0.1257,-0.1247,-0.1256,-0.1253,-0.1258,-0.1251,-0.1249,-0.1247,-0.1245,-0.1248,-0.1273,-0.1294,-0.1251,-0.1252,-0.1339,-0.1341,-0.1343,-0.1384,0,0,0,0,0,0,-0.124,-0.1244,-0.1258,-0.1255,-0.1258,-0.1291,-0.1257,-0.1254,-0.126,-0.1257,-0.1256,-0.1255,-0.1244,-0.127,-0.1274,-0.1296,-0.1253,-0.1337,-0.134,-0.1343,-0.1381,-0.1388,-0.1393,0,0,0,0,0,-0.1238,-0.127,-0.1259,-0.1262,-0.1275,-0.1292,-0.1294,-0.1281,-0.1262,-0.1277,-0.1272,-0.1255,-0.1291,-0.1273,-0.1277,-0.13,-0.1335,-0.1339,-0.1342,-0.1378,-0.1386,-0.1393,0,0,0,0,0,0,-0.1277,-0.1269,-0.1257,-0.1289,-0.1291,-0.1286,-0.1304,-0.129,-0.1298,-0.1294,-0.1278,-0.1278,-0.1306,-0.1305,-0.1285,-0.1336,-0.131,-0.1314,-0.1336,-0.1344,-0.135,-0.135,-0.1255,0,0,0,0,0,-0.1289,-0.1303,-0.1295,-0.1324,-0.1325,-0.1315,-0.1321,-0.1311,-0.1313,-0.1314,-0.1311,-0.1314,-0.1326,-0.1335,-0.1345,-0.138,-0.138,-0.1397,-0.1403,-0.1408,-0.1413,-0.1431,-0.1439,-0.1355,-0.1355,-0.1355,0,0,-0.1314,-0.1312,-0.1322,-0.1331,-0.1332,-0.1347,-0.1316,-0.1333,-0.1344,-0.1317,-0.1341,-0.1338,-0.134,-0.1371,-0.1384,-0.1371,-0.1436,-0.1413,-0.1417,-0.1419,-0.1436,-0.1444,-0.1451,-0.1358,-0.1357,-0.1357,0,0,-0.1368,-0.1367,-0.1391,-0.1392,-0.1393,-0.1385,-0.1391,-0.1388,-0.1385,-0.1408,-0.1388,-0.1401,-0.1422,-0.1424,-0.1428,-0.1481,-0.1466,-0.1485,-0.1519,-0.1537,-0.1543,-0.1549,-0.1569,-0.1576,-0.1489,-0.1489,-0.149,0,-0.14,-0.1422,-0.1405,-0.1424,-0.1429,-0.1403,-0.1427,-0.1429,-0.1434,-0.1438,-0.1423,-0.1448,-0.1448,-0.1478,-0.1491,-0.1495,-0.1501,-0.1486,-0.1544,-0.1549,-0.1555,-0.1573,-0.1581,-0.1492,-0.1492,-0.1491,-0.1491,0,-0.1461,-0.1476,-0.1495,-0.1499,-0.1506,-0.1527,-0.1514,-0.1523,-0.1511,-0.1505,-0.1529,-0.1527,-0.1537,-0.1543,-0.1532,-0.1572,-0.1564,-0.1546,-0.152,-0.1565,-0.1583,-0.159,-0.1495,-0.1494,-0.1494,-0.1493,0,0,-0.1542,-0.1535,-0.1543,-0.1544,-0.1543,-0.1555,-0.1574,-0.1583,-0.1591,-0.1595,-0.1611,-0.1629,-0.1612,-0.1617,-0.1606,-0.1621,-0.1664,-0.1602,-0.1602,-0.1615,-0.1709,-0.1723,-0.1732,-0.1653,-0.1655,-0.1656,-0.1709,0,-0.1595,-0.1628,-0.1614,-0.1649,-0.1663,-0.1638,-0.1655,-0.1656,-0.165,-0.1661,-0.1655,-0.1668,-0.1645,-0.1647,-0.1662,-0.1656,-0.1683,-0.1652,-0.167,-0.1671,-0.1672,-0.1741,-0.1756,-0.1807,-0.1716,-0.1717,-0.1718,0,-0.1663,-0.1668,-0.1705,-0.17,-0.1705,-0.1721,-0.1728,-0.1738,-0.1739,-0.1734,-0.1738,-0.1723,-0.1742,-0.1714,-0.1741,-0.172,-0.1726,-0.1724,-0.1725,-0.1728,-0.1698,-0.1747,-0.1823,-0.1831,-0.1728,-0.1727,-0.1726,0,-0.1719,-0.1736,-0.176,-0.1762,-0.1757,-0.1768,-0.1767,-0.1766,-0.1772,-0.1777,-0.1781,-0.1789,-0.1794,-0.18,-0.1788,-0.1769,-0.1816,-0.1788,-0.1813,-0.1814,-0.1826,-0.1826,-0.1906,-0.1827,-0.1827,-0.1827,-0.1827,0,-0.1782,-0.1805,-0.1785,-0.18,-0.1825,-0.1808,-0.1833,-0.1829,-0.1828,-0.1842,-0.182,-0.1834,-0.1816,-0.1827,-0.1817,-0.1841,-0.1843,-0.184,-0.1837,-0.1843,-0.1843,-0.1848,-0.1845,-0.1829,-0.1829,-0.1828,-0.1828,0,-0.185,-0.1838,-0.1862,-0.1855,-0.1853,-0.1873,-0.1867,-0.188,-0.1872,-0.189,-0.1893,-0.1881,-0.1893,-0.1881,-0.1892,-0.1886,-0.1918,-0.1909,-0.1918,-0.1916,-0.1943,-0.1941,-0.203,-0.2041,-0.1954,-0.1955,-0.1956,0,-0.1892,-0.1909,-0.1904,-0.1911,-0.1911,-0.1923,-0.1928,-0.1911,-0.1918,-0.1919,-0.1933,-0.1943,-0.1951,-0.1972,-0.1964,-0.1973,-0.1966,-0.1996,-0.1967,-0.1972,-0.1968,-0.1968,-0.1969,-0.2003,-0.2004,-0.2005,-0.2005,0,-0.1968,-0.196,-0.1969,-0.1975,-0.1983,-0.1987,-0.199,-0.1997,-0.1979,-0.1988,-0.2,-0.2006,-0.2017,-0.2029,-0.2035,-0.2033,-0.2017,-0.2014,-0.2021,-0.2027,-0.2032,-0.2031,-0.1936,-0.2013,-0.2012,-0.2011,-0.2011,-0.2011,-0.2025,-0.2039,-0.2037,-0.2047,-0.2047,-0.205,-0.2063,-0.2056,-0.2065,-0.2073,-0.2062,-0.2077,-0.2076,-0.2083,-0.2083,-0.2095,-0.2083,-0.2092,-0.2095,-0.2098,-0.2102,-0.2029,-0.2096,-0.2096,-0.2096,-0.2096,-0.2095,0,-0.21,-0.2097,-0.2107,-0.2111,-0.2119,-0.2101,-0.2103,-0.2111,-0.2125,-0.2125,-0.2133,-0.2147,-0.2157,-0.2149,-0.2158,-0.2169,-0.2161,-0.2172,-0.2172,-0.2172,-0.2112,-0.2106,-0.2178,-0.2178,-0.2178,-0.2178,-0.2178,-0.2178,-0.214,-0.2164,-0.2156,-0.2179,-0.2175,-0.219,-0.2193,-0.2195,-0.2195,-0.2212,-0.222,-0.2214,-0.2212,-0.222,-0.2228,-0.2226,-0.223,-0.2244,-0.2239,-0.2184,-0.2176,-0.2168,-0.2163,-0.2245,-0.2245,-0.2297,-0.2298,-0.2298]}]]